Location: St. Louis
(38.6270°N, 90.1994°W)
Time: 07:10:54
(UTC-06:00)

Transit 2A Rocket - Pass Details

Date: 03 December 2021
Orbit: 584 x 917 km, 66.7° (Epoch: 23 January)

Event Time Altitude Azimuth Distance (km) Brightness Sun altitude
Rises 18:09:24 0° 314° (NW) 3,526 8.9 -17.1°
Reaches altitude 10° 18:12:48 10° 296° (WNW) 2,545 8.4 -17.8°
Maximum altitude 18:16:30 17° 257° (WSW) 2,015 8.2 -18.5°
Drops below altitude 10° 18:20:03 10° 218° (SW) 2,419 8.3 -19.1°
Sets 18:23:12 0° 199° (SSW) 3,281 8.7 -19.7°
